Theta_e
320 319 320 320 320 322 323 323 322 321 319 320 319 317 316 316 315 314 313 313 313 313 313 316 316 318 321 336 339 338 337 339 338 334 331 329 328 328 327 327 326 326 325 325
321 321 320 321 322 323 323 321 319 318 318 318 316 316 314 315 316 314 314 313 313 313 315 318 318 326 330 338 337 335 334 334 335 334 330 326 326 324 325 324 323 326 324 323
319 320 321 320 319 319 319 318 317 317 315 315 315 316 316 316 316 316 316 314 313 313 315 316 316 316 318 332 334 333 332 331 331 330 328 325 323 320 320 320 320 319 321 321
319 320 320 319 318 318 317 317 318 316 315 316 315 317 316 316 316 316 315 313 313 315 315 316 315 314 316 316 324 331 330 330 330 328 327 324 322 320 319 319 319 319 317 318
320 319 318 319 319 318 319 318 316 316 314 314 315 315 317 315 317 313 312 309 308 311 313 313 312 313 314 315 314 315 328 329 327 327 326 324 322 322 320 319 317 316 316 315
319 318 317 317 318 318 318 315 315 315 315 318 317 315 316 319 320 313 310 307 305 304 303 303 303 305 307 309 312 315 315 324 327 324 324 324 323 322 321 319 317 315 314 313
321 320 318 317 317 317 317 317 318 320 320 320 318 319 319 314 309 307 305 304 303 302 302 302 301 300 303 304 304 305 306 316 323 325 323 323 323 322 321 321 319 316 314 313
320 323 318 316 314 315 315 317 321 322 323 321 319 320 316 309 306 304 304 303 303 303 302 302 303 303 302 303 303 304 304 305 313 322 324 323 322 320 320 319 319 317 315 313
322 322 317 317 315 315 317 318 316 321 319 322 319 317 315 307 305 304 302 302 301 301 302 303 303 304 304 305 304 304 304 306 306 311 319 323 322 320 319 319 318 318 316 314
316 320 316 315 313 313 313 313 316 320 322 321 317 315 314 306 303 301 301 301 301 306 307 307 304 304 304 304 306 309 310 309 309 307 312 319 320 320 320 318 317 317 316 314
315 316 316 313 314 314 313 313 314 315 317 319 318 314 306 304 301 300 300 301 305 306 306 306 307 307 308 307 307 309 310 310 309 310 309 315 318 318 316 316 316 315 314 314
307 309 310 312 310 309 308 307 308 314 316 315 312 307 303 301 300 300 302 306 305 304 303 305 306 308 308 309 310 310 309 311 312 311 312 314 314 313 313 313 313 313 313 312
307 306 306 308 308 307 306 305 304 305 306 308 307 303 301 300 299 303 305 305 303 303 303 304 304 307 306 307 308 308 309 308 311 311 310 309 311 311 311 311 311 311 310 310
303 304 306 308 308 304 303 303 302 302 304 303 302 300 299 299 304 303 302 302 303 303 303 303 305 307 307 307 307 308 309 307 308 308 309 309 308 308 307 307 308 307 307 306
303 304 304 303 303 302 301 301 300 299 299 299 299 299 299 304 303 302 302 302 302 302 304 306 309 306 307 306 307 308 309 309 308 307 306 308 308 308 308 308 306 306 305 304
303 303 302 300 301 301 301 301 300 299 299 299 299 300 303 301 301 301 301 300 301 303 306 308 308 308 307 308 308 309 307 308 306 305 305 305 304 303 303 302 301 301 301 300
306 304 304 303 301 301 299 299 299 298 298 300 303 303 300 300 300 300 299 299 302 302 305 308 308 307 307 307 309 307 305 305 303 300 299 300 300 299 297 297 297 296 295 296
302 301 301 301 300 299 298 298 298 299 302 301 299 298 299 299 299 299 299 303 300 300 306 307 307 306 307 308 308 306 304 301 299 298 296 295 295 294 294 294 293 293 293 292
298 299 299 298 298 298 298 300 301 301 301 297 295 297 298 299 299 299 301 301 302 304 304 305 306 305 306 307 307 305 302 299 297 295 293 292 292 291 291 290 290 290 290 290
298 298 297 297 297 297 297 301 300 299 300 297 294 296 300 299 300 299 300 301 302 304 304 304 305 306 306 307 307 305 301 299 296 293 292 291 291 290 289 289 289 289 289 289
298 298 298 299 300 301 300 298 299 300 297 293 296 298 299 299 299 299 301 303 302 302 303 304 304 304 304 306 306 305 300 298 295 292 291 290 290 290 289 289 289 289 289 289
299 299 300 299 300 297 299 299 293 294 295 298 299 298 298 299 301 302 301 301 301 301 302 302 303 305 305 306 305 304 301 297 295 291 290 290 290 290 290 290 290 290 289 289
296 297 297 295 294 296 298 295 296 297 294 298 298 297 297 301 301 300 300 300 301 300 300 300 302 305 305 306 305 302 299 297 294 291 290 290 290 290 290 290 289 289 290 289
295 296 294 294 296 296 296 297 298 298 298 297 297 297 300 300 300 299 298 299 298 298 298 299 300 302 304 304 305 303 300 298 295 291 290 290 290 290 290 290 290 290 290 289
294 295 295 291 295 297 296 297 297 297 298 298 298 300 298 299 298 297 298 297 297 297 298 298 298 299 302 302 304 302 301 298 295 293 291 291 291 291 290 290 291 291 290 289
296 298 297 292 296 296 299 298 297 298 298 300 298 298 298 297 297 296 296 296 296 297 297 297 297 297 299 300 299 301 300 298 296 293 291 291 291 291 291 291 290 290 290 290
Wind_Speed
6 4 7 11 13 15 11 12 12 12 10 16 16 14 10 7 9 11 10 9 8 9 7 4 5 8 8 26 36 36 35 39 35 32 27 26 30 35 37 38 39 43 43 42
4 11 15 14 14 14 13 13 14 8 8 10 17 19 9 6 9 10 8 10 10 9 12 17 26 29 11 26 27 29 30 32 34 31 30 19 22 25 31 32 35 44 46 44
6 11 9 7 6 7 6 8 6 12 9 4 13 18 3 5 8 10 11 10 5 12 13 14 17 25 30 12 18 22 28 30 30 30 28 20 20 10 19 25 31 34 44 46
9 7 5 7 7 7 10 9 7 7 9 4 10 13 18 5 8 12 14 15 13 14 14 16 14 17 25 31 17 9 19 25 25 30 32 28 20 15 21 24 30 38 37 42
8 14 15 14 12 12 17 4 3 2 5 11 6 4 12 10 3 12 16 19 19 18 13 10 9 13 15 15 14 14 4 18 22 28 32 31 23 24 19 26 27 31 36 38
13 12 10 10 14 8 5 3 6 2 0 8 14 8 6 3 4 15 16 16 16 16 15 15 21 24 25 26 19 12 7 6 24 27 30 31 29 26 23 23 26 28 31 35
13 8 5 6 4 3 3 3 4 4 3 10 3 8 4 11 16 16 14 15 13 12 15 15 12 10 19 23 24 26 19 8 9 27 29 30 32 33 31 31 27 26 30 34
3 4 3 5 3 3 4 3 4 7 3 5 7 6 5 14 13 12 11 9 14 17 16 14 15 16 18 18 22 27 28 21 13 17 29 32 32 30 31 31 32 31 31 37
3 4 3 6 2 1 2 2 1 2 1 3 6 9 12 12 12 11 13 13 14 14 11 9 9 14 21 28 33 33 26 22 23 24 28 34 35 34 32 31 31 31 35 33
4 6 5 5 4 3 6 2 1 3 4 7 5 12 6 11 15 17 15 11 11 8 11 15 11 12 19 18 19 22 30 34 35 29 29 33 36 36 34 33 34 35 35 35
3 2 3 9 3 5 4 3 1 1 4 4 6 6 4 7 15 18 20 22 16 15 16 10 13 10 15 20 25 23 21 30 34 39 35 30 36 33 28 30 33 35 33 35
2 3 5 6 11 12 8 6 7 4 4 4 1 7 10 18 19 20 17 16 16 14 12 12 13 14 18 21 26 24 23 20 14 7 8 17 22 21 24 28 32 33 35 33
4 3 3 5 1 1 3 7 9 6 5 2 4 6 18 20 23 17 15 14 15 16 15 13 16 6 7 15 23 23 21 18 9 7 7 6 10 18 23 29 31 30 32 35
4 3 5 7 5 8 9 13 12 8 6 11 14 21 18 17 14 17 17 16 17 18 18 18 10 7 9 9 22 19 16 12 7 7 7 12 14 26 27 28 26 28 31 32
5 5 7 9 11 11 14 13 9 13 14 13 18 19 20 8 12 15 16 19 21 20 19 15 10 9 9 11 17 15 17 14 10 9 9 13 19 22 23 26 30 32 31 34
3 4 5 11 9 14 19 13 14 16 19 19 19 18 10 12 11 13 17 17 21 21 18 19 14 11 6 7 11 7 13 6 6 10 13 17 20 20 25 26 29 29 30 34
5 2 5 16 8 10 10 5 13 17 18 12 10 4 9 11 12 14 19 18 18 19 19 19 12 8 7 7 2 3 8 11 14 14 13 14 19 21 18 21 23 25 26 30
8 8 4 8 8 11 6 9 12 9 4 8 4 6 8 10 14 17 13 10 13 17 21 14 11 9 18 5 3 1 5 7 9 9 9 9 9 12 16 20 23 24 28 32
12 8 3 5 11 12 17 6 2 5 4 4 1 9 11 14 14 16 13 15 21 21 18 19 26 23 19 11 7 2 2 5 6 6 6 4 9 13 16 17 21 24 27 27
12 10 7 3 3 5 1 2 3 7 8 2 2 4 9 13 11 13 20 19 22 22 21 11 12 24 13 10 9 5 2 4 4 3 4 4 10 14 16 20 22 23 24 26
5 2 10 11 7 4 1 6 8 3 4 3 0 4 9 7 6 17 20 15 18 21 24 27 29 14 19 8 9 8 5 1 2 2 2 6 11 15 19 22 24 26 25 27
3 3 2 2 2 5 10 7 6 7 3 3 4 5 9 12 14 14 16 18 20 19 23 28 26 25 29 7 7 8 6 4 4 4 6 9 14 18 23 25 24 26 27 25
2 1 2 5 4 8 2 6 3 3 3 3 3 10 11 12 12 12 13 16 17 18 22 26 26 23 28 13 7 8 8 5 6 7 8 12 16 20 23 25 26 24 24 23
3 4 2 3 3 5 7 4 5 3 2 6 6 11 12 10 11 12 13 14 15 20 22 26 24 22 23 29 5 6 8 5 8 8 10 14 18 20 21 22 24 26 21 21
4 4 4 5 6 4 4 4 3 3 7 9 10 9 6 5 8 11 11 12 12 18 20 23 21 21 23 22 14 4 10 11 8 9 13 14 15 18 19 19 20 23 24 29
2 2 2 5 5 3 2 7 2 2 5 9 5 6 7 7 8 10 9 12 15 17 18 19 22 22 22 18 21 8 3 9 12 11 13 16 16 17 18 18 17 20 25 28
Wind_Direction
277 214 229 226 230 235 260 284 295 300 305 302 292 291 287 304 346 313 296 288 274 269 241 153 6 330 192 177 176 179 178 186 183 174 178 181 184 195 199 200 195 196 193 194
284 246 245 252 261 267 276 285 287 291 289 303 296 290 284 288 272 271 268 275 266 257 52 48 32 32 172 168 165 166 175 181 189 190 190 187 190 192 197 195 200 203 200 196
228 269 312 300 295 320 286 284 305 297 333 299 298 298 310 287 313 308 293 267 9 95 80 65 58 50 47 86 145 166 185 186 188 194 194 195 193 190 189 193 198 200 202 201
264 272 306 320 282 285 284 273 305 343 4 305 31 300 308 277 313 353 357 50 60 66 61 61 53 52 54 56 59 167 198 203 201 200 198 193 193 197 206 212 207 207 209 206
249 302 297 296 283 297 286 278 337 337 322 321 159 252 309 312 352 47 48 43 34 29 33 46 54 57 50 56 55 55 241 227 212 207 208 199 196 210 219 216 214 209 208 209
242 255 268 262 270 276 283 9 336 318 53 276 291 196 310 1 83 68 48 39 29 23 20 17 15 9 9 8 13 17 36 253 220 213 211 207 203 205 204 207 205 203 204 204
287 266 287 10 335 347 346 56 324 319 176 240 269 311 155 87 62 53 34 26 22 17 7 353 352 350 344 338 331 329 337 329 240 218 217 222 220 216 212 211 206 202 202 201
286 321 59 17 64 6 329 124 176 244 230 296 355 269 118 92 58 42 47 27 10 358 346 340 338 336 329 319 318 311 309 305 280 236 223 226 231 226 223 220 213 210 207 205
307 247 75 340 102 56 359 218 146 352 252 245 254 275 290 56 34 34 11 1 351 336 327 321 302 300 304 306 309 309 306 292 285 268 246 227 225 224 228 230 228 220 213 208
332 301 274 22 43 251 211 285 266 70 256 244 256 270 250 12 8 354 350 347 341 355 339 336 311 282 288 301 318 324 318 305 296 274 251 239 233 231 231 234 232 228 222 209
60 198 264 348 229 225 280 238 173 23 238 255 259 245 73 42 358 344 335 339 352 356 350 356 340 11 341 340 329 319 318 304 287 283 270 235 221 228 232 232 237 239 235 221
55 240 259 241 274 276 298 278 277 230 269 257 267 260 348 344 334 329 348 348 341 330 326 322 344 340 346 343 331 343 345 1 5 331 282 243 234 232 222 225 229 239 238 230
184 255 318 304 309 162 5 331 328 344 11 210 292 288 326 320 330 357 340 329 320 320 327 336 324 307 310 339 315 316 330 333 340 338 318 275 241 218 224 226 227 229 231 221
56 288 217 239 281 323 287 292 305 306 263 283 272 291 307 316 354 336 335 332 330 318 319 312 300 274 268 295 289 295 311 307 321 323 306 261 247 244 244 237 239 228 217 201
165 233 244 262 282 293 287 285 303 288 283 274 282 288 292 5 333 327 324 320 317 315 312 309 282 256 261 259 276 302 290 280 276 265 264 260 245 240 247 243 239 230 209 197
214 246 254 268 258 265 269 270 266 267 267 271 274 281 8 337 327 310 314 323 312 314 309 302 277 259 211 248 281 342 359 1 320 310 297 289 280 275 242 223 211 202 191 185
202 224 242 267 261 285 276 229 262 266 267 292 281 11 346 314 311 318 314 312 312 312 304 291 277 285 271 269 175 33 345 343 336 329 319 293 268 245 218 196 181 171 165 165
234 243 242 271 295 269 258 228 263 286 27 66 46 325 308 311 311 298 302 318 299 287 302 317 309 292 291 207 156 314 323 353 345 320 308 293 228 189 174 161 156 152 151 150
227 241 251 239 248 271 295 319 29 34 9 65 272 334 325 320 308 322 343 323 312 308 290 284 272 283 290 193 184 223 324 350 9 322 295 257 201 177 165 149 147 147 143 138
230 215 201 231 228 251 351 76 270 305 267 48 162 290 312 322 341 314 324 316 302 314 325 328 325 294 298 206 179 179 177 352 352 312 272 226 191 168 146 142 138 139 137 135
298 306 219 228 245 243 77 348 298 216 248 265 235 281 314 313 290 291 300 308 330 333 342 358 345 326 316 198 171 173 152 96 4 103 163 185 172 160 148 142 142 140 136 136
328 318 286 217 275 293 185 180 145 212 235 271 306 300 325 314 303 314 325 335 334 334 352 354 346 347 343 135 129 150 130 121 82 110 135 166 167 153 153 148 145 145 139 134
296 43 233 179 234 307 129 195 245 123 187 242 274 313 329 304 312 336 335 331 331 341 349 351 344 359 8 1 81 121 149 123 105 123 141 153 159 153 155 148 141 140 144 138
294 322 281 8 236 275 293 135 137 155 221 294 306 336 303 321 337 339 335 336 340 345 345 347 349 353 357 352 22 149 163 156 125 134 154 158 159 157 155 155 152 149 147 143
231 311 264 266 279 287 311 227 207 59 347 316 326 297 342 336 328 341 335 336 332 334 344 349 347 348 347 5 357 206 188 179 152 152 165 166 163 164 161 163 167 161 159 157
193 190 224 236 266 191 281 334 276 79 300 300 290 332 342 350 348 332 336 336 336 337 345 345 344 341 339 359 10 347 221 207 177 168 171 176 174 174 172 163 160 174 166 168